Waarnemingen

Advertentie
Mijn weer
D15-FA-1, Nederland (6201): temperatuur & dauwpunt: 23.03.2017 01:00:00 - 29.03.2017 01:00:00 (CEST)D15-FA-1, Nederland (6201): windsnelheid & windstoten: 23.03.2017 01:00:00 - 29.03.2017 01:00:00 (CEST)D15-FA-1, Nederland (6201): windrichting: 23.03.2017 01:00:00 - 29.03.2017 01:00:00 (CEST)D15-FA-1, Nederland (6201): luchtdruk: 23.03.2017 01:00:00 - 29.03.2017 01:00:00 (CEST)D15-FA-1, Nederland (6201): zicht: 23.03.2017 01:00:00 - 29.03.2017 01:00:00 (CEST)
Datum & Tijd tt [°C] td [°C] ff [km/u] ff [kn] fx [km/u] fx [kn] dd ppp [hPa] vv [km]
29.03.2017 01:00:00 7,9 7,3 28 15 29 16 ZW 1017,3 5
29.03.2017 00:00:00 6,7 6,7 26 14 29 16 ZW 1017,4 2,8
28.03.2017 23:00:00 6,0 6,0 24 13 32 18 WZW 1017,7 1,2
28.03.2017 22:00:00 5,6 5,6 28 15 32 18 ZW 1017,9 0,4
28.03.2017 21:00:00 4,8 4,8 24 13 32 18 ZZW 1018,1 0,7
28.03.2017 20:00:00 4,6 4,6 18 10 22 12 Z 1018,1 0,9
28.03.2017 19:00:00 4,5 4,5 15 8 18 10 Z 1018,2 1,3
28.03.2017 18:00:00 4,2 4,2 11 6 14 8 Z 1018,5 0,6
28.03.2017 17:00:00 4,3 4,3 9 5 14 8 ZZO 1019,1 1,0
28.03.2017 16:00:00 4,2 4,2 9 5 11 6 Z 1019,7 0,7
28.03.2017 15:00:00 4,2 4,2 11 6 14 8 ZO 1019,9 1,3
28.03.2017 14:00:00 4,0 4,0 11 6 14 8 OZO 1020,2 0,1
28.03.2017 13:00:00 3,7 3,7 5 3 11 6 ZO 1020,7 0,9
28.03.2017 12:00:00 3,7 3,7 5 3 11 6 ZO 1020,8 0,2
28.03.2017 11:00:00 3,8 3,8 5 3 11 6 O 1020,7 0,1
28.03.2017 10:00:00 3,9 3,9 8 4 14 8 - 1020,8 0,5
28.03.2017 09:00:00 3,7 3,7 4 2 11 6 - 1020,6 0,1
28.03.2017 08:00:00 3,7 3,7 8 4 11 6 ONO 1020,5 0,2
28.03.2017 07:00:00 3,6 3,6 9 5 11 6 O 1020,6 0,3
28.03.2017 06:00:00 3,6 3,6 8 4 11 6 OZO 1020,9 0,3
28.03.2017 05:00:00 3,5 3,5 9 5 11 6 O 1020,7 0,3
28.03.2017 04:00:00 3,8 3,8 5 3 18 10 O 1021,6 0,4
28.03.2017 03:00:00 4,1 4,1 16 9 22 12 O 1021,8 0,3
28.03.2017 02:00:00 4,0 4,0 15 8 18 10 O 1022,3 0,3
28.03.2017 01:00:00 4,3 4,2 13 7 18 10 O 1022,6 0,6
28.03.2017 00:00:00 4,5 4,3 13 7 18 10 O 1023,0 1,7
27.03.2017 23:00:00 4,8 4,4 8 4 18 10 O 1023,5 2,6
27.03.2017 22:00:00 4,7 4,2 15 8 18 10 O 1023,5 3,3
27.03.2017 21:00:00 4,5 4,0 15 8 18 10 OZO 1023,6 2,7
27.03.2017 20:00:00 5,1 4,4 11 6 18 10 OZO 1023,5 4,4
27.03.2017 19:00:00 5,1 4,3 14 8 22 12 OZO 1023,5 6
27.03.2017 18:00:00 5,2 4,2 18 10 22 12 O 1023,5 6
27.03.2017 17:00:00 5,5 4,4 18 10 22 12 O 1024,0 6
27.03.2017 16:00:00 5,5 4,7 18 10 22 12 O 1024,6 5
27.03.2017 15:00:00 5,5 4,7 18 10 18 10 O 1025,0 6
27.03.2017 14:00:00 5,2 4,6 11 6 18 10 O 1025,7 6
27.03.2017 13:00:00 5,1 4,7 13 7 18 10 OZO 1026,1 4,3
27.03.2017 12:00:00 5,0 4,2 15 8 18 10 O 1026,4 10
27.03.2017 11:00:00 5,2 3,9 13 7 18 10 OZO 1026,6 10
27.03.2017 10:00:00 5,1 3,9 11 6 18 10 OZO 1026,3 10
27.03.2017 09:00:00 5,2 3,6 11 6 11 6 O 1026,4 10
27.03.2017 08:00:00 5,3 3,6 9 5 14 8 O 1026,0 10
27.03.2017 07:00:00 5,3 3,4 9 5 18 10 OZO 1026,1 10
27.03.2017 06:00:00 5,8 3,8 18 10 22 12 OZO 1025,9 10
27.03.2017 05:00:00 6,1 3,7 15 8 18 10 ZO 1026,2 8
27.03.2017 04:00:00 6,1 3,9 18 10 22 12 OZO 1026,5 10
27.03.2017 03:00:00 6,0 4,4 13 7 25 14 OZO 1026,7 10
27.03.2017 02:00:00 6,2 4,8 18 10 25 14 OZO 1027,3 10
27.03.2017 01:00:00 6,3 5,3 18 10 22 12 O 1027,4 10
27.03.2017 00:00:00 6,3 5,2 21 11 22 12 O 1027,6 10
26.03.2017 23:00:00 6,6 5,5 21 11 22 12 O 1027,6 10
26.03.2017 22:00:00 7,0 5,5 21 11 25 14 O 1027,6 10
26.03.2017 21:00:00 7,0 5,5 15 8 25 14 NO 1027,4 10
26.03.2017 20:00:00 6,8 5,1 18 10 22 12 - 1027,2 10
26.03.2017 19:00:00 6,9 6,0 11 6 14 8 NO 1027,6 10
26.03.2017 18:00:00 6,7 5,9 8 4 11 6 - 1027,9 10
26.03.2017 17:00:00 6,8 6,3 8 4 11 6 ONO 1028,1 10
26.03.2017 16:00:00 6,8 6,1 9 5 11 6 O 1028,2 10
26.03.2017 15:00:00 6,8 6,2 11 6 14 8 ONO 1028,6 10
26.03.2017 14:00:00 6,6 6,3 16 9 25 14 ONO 1028,6 10
26.03.2017 13:00:00 6,6 6,0 22 12 25 14 ONO 1028,8 10
26.03.2017 12:00:00 7,0 5,7 22 12 25 14 - 1028,7 10
26.03.2017 11:00:00 7,0 6,0 16 9 18 10 NO 1028,7 10
26.03.2017 10:00:00 7,2 6,0 16 9 18 10 NNO 1028,9 10
26.03.2017 09:00:00 7,3 5,6 11 6 14 8 NNO 1028,7 10
26.03.2017 08:00:00 6,8 5,4 11 6 14 8 NNO 1028,1 10
26.03.2017 07:00:00 6,9 4,2 16 9 18 10 NO 1027,8 10
26.03.2017 06:00:00 6,9 4,4 16 9 22 12 NO 1028,0 10
26.03.2017 05:00:00 7,0 4,5 21 11 22 12 NO 1028,1 10
26.03.2017 04:00:00 6,9 5,3 22 12 22 12 NO 1028,7 10
26.03.2017 03:00:00 6,8 6,2 16 9 18 10 NNO 1028,8 6
26.03.2017 02:00:00 6,9 6,4 18 10 18 10 NO 1029,4 5
26.03.2017 01:00:00 7,0 6,3 13 7 18 10 NO 1029,6 7
26.03.2017 00:00:00 7,0 6,0 16 9 18 10 NNO 1030,3 10
25.03.2017 23:00:00 7,1 5,9 16 9 14 8 NNO 1030,3 10
25.03.2017 22:00:00 7,1 5,7 11 6 14 8 N 1030,0 10
25.03.2017 21:00:00 7,2 5,7 15 8 14 8 N 1030,0 10
25.03.2017 20:00:00 7,4 5,4 11 6 14 8 N 1030,1 10
25.03.2017 19:00:00 7,5 5,0 15 8 14 8 N 1030,3 10
25.03.2017 18:00:00 7,7 5,1 15 8 14 8 NNW 1030,4 10
25.03.2017 17:00:00 7,4 4,8 15 8 18 10 NNW 1031,2 10
25.03.2017 16:00:00 7,5 4,9 13 7 14 8 NNW 1032,1 10
25.03.2017 15:00:00 7,5 4,5 13 7 14 8 NW 1033,0 10
25.03.2017 14:00:00 7,8 3,6 13 7 14 8 NW 1033,9 10
25.03.2017 13:00:00 7,2 3,3 8 4 11 6 NW 1034,2 10
25.03.2017 12:00:00 7,1 2,0 9 5 11 6 NW 1034,4 10
25.03.2017 11:00:00 6,9 2,5 11 6 11 6 NW 1034,4 10
25.03.2017 10:00:00 6,9 4,4 9 5 11 6 NW 1034,6 10
25.03.2017 09:00:00 6,9 4,1 8 4 11 6 NW 1034,5 10
25.03.2017 08:00:00 6,5 3,9 11 6 14 8 NNW 1034,2 10
25.03.2017 07:00:00 6,3 4,0 13 7 14 8 NW 1034,3 10
25.03.2017 06:00:00 6,3 3,9 13 7 14 8 NW 1034,4 10
25.03.2017 05:00:00 6,2 4,0 9 5 11 6 NW 1034,7 10
25.03.2017 04:00:00 6,2 3,9 4 2 14 8 - 1035,2 10
25.03.2017 03:00:00 6,2 3,7 4 2 7 4 - 1035,8 10
25.03.2017 02:00:00 6,3 3,4 5 3 7 4 ZZO 1035,8 10
25.03.2017 01:00:00 6,4 3,0 8 4 7 4 OZO 1035,7 10
25.03.2017 00:00:00 6,6 2,8 8 4 14 8 ONO 1035,6 10
24.03.2017 23:00:00 6,5 3,3 15 8 18 10 - 1035,5 10
24.03.2017 22:00:00 6,5 3,6 16 9 22 12 NO 1035,3 10
24.03.2017 21:00:00 6,5 4,2 22 12 22 12 NO 1034,9 10
24.03.2017 20:00:00 6,6 4,4 18 10 18 10 NNO 1034,8 10
24.03.2017 19:00:00 6,5 4,2 13 7 14 8 NO 1034,3 10
24.03.2017 18:00:00 6,6 4,3 13 7 14 8 - 1034,5 10
24.03.2017 17:00:00 6,5 4,1 13 7 14 8 - 1034,9 10
24.03.2017 16:00:00 6,6 4,1 9 5 11 6 O 1034,8 10
24.03.2017 15:00:00 6,6 3,7 11 6 11 6 O 1035,0 10
24.03.2017 14:00:00 6,3 3,4 15 8 14 8 O 1034,6 10
24.03.2017 13:00:00 6,4 3,0 15 8 14 8 ONO 1034,5 10
24.03.2017 12:00:00 6,7 3,3 16 9 18 10 O 1034,0 10
24.03.2017 11:00:00 6,7 3,3 21 11 25 14 O 1033,3 10
24.03.2017 10:00:00 6,2 3,2 22 12 22 12 ONO 1032,7 10
24.03.2017 09:00:00 6,5 3,0 22 12 22 12 O 1032,3 10
24.03.2017 08:00:00 6,0 2,7 24 13 29 16 ONO 1031,5 10
24.03.2017 07:00:00 5,9 2,8 24 13 29 16 - 1031,2 10
24.03.2017 06:00:00 6,0 2,8 28 15 32 18 - 1030,5 10
24.03.2017 05:00:00 5,9 2,6 35 19 36 19 - 1030,5 10
24.03.2017 04:00:00 5,9 2,0 31 17 32 18 - 1030,2 10
24.03.2017 03:00:00 5,9 1,9 37 20 40 21 - 1029,7 10
24.03.2017 02:00:00 5,9 2,2 39 21 43 23 - 1029,0 10
24.03.2017 01:00:00 6,0 2,3 41 22 43 23 - 1028,7 10
24.03.2017 00:00:00 5,9 2,7 46 25 47 25 - 1028,4 10
23.03.2017 23:00:00 6,1 2,2 39 21 47 25 - 1027,8 10
23.03.2017 22:00:00 6,2 3,3 41 22 47 25 - 1027,7 10
23.03.2017 21:00:00 6,4 3,4 37 20 47 25 - 1026,8 10
23.03.2017 20:00:00 6,5 3,8 41 22 47 25 NO 1025,7 10
23.03.2017 19:00:00 6,5 4,0 35 19 47 25 - 1025,0 10
23.03.2017 18:00:00 6,6 3,8 46 25 50 27 - 1024,1 -
23.03.2017 17:00:00 6,7 3,9 41 22 47 25 - 1023,5 10
23.03.2017 16:00:00 6,7 4,1 39 21 43 23 - 1023,1 10
23.03.2017 15:00:00 6,7 4,2 37 20 40 21 ONO 1023,0 10
23.03.2017 14:00:00 6,7 4,4 39 21 40 21 ONO 1022,8 10
23.03.2017 13:00:00 7,0 4,1 39 21 40 21 ONO 1022,5 10
23.03.2017 12:00:00 7,0 4,2 44 24 43 23 ONO 1021,6 10
23.03.2017 11:00:00 6,9 4,1 37 20 40 21 ONO 1020,8 10
23.03.2017 10:00:00 7,2 3,9 35 19 36 19 O 1020,4 10
23.03.2017 09:00:00 7,2 4,1 37 20 36 19 O 1019,7 10
23.03.2017 08:00:00 7,1 4,1 37 20 36 19 O 1018,9 10
23.03.2017 07:00:00 7,0 4,1 35 19 32 18 O 1018,4 10
23.03.2017 06:00:00 7,0 4,0 35 19 40 21 O 1017,9 10
23.03.2017 05:00:00 7,0 4,0 39 21 40 21 O 1017,2 10
23.03.2017 04:00:00 7,2 4,0 39 21 43 23 O 1016,8 10
23.03.2017 03:00:00 7,1 3,8 44 24 50 27 O 1016,5 10
23.03.2017 02:00:00 7,2 3,3 48 26 47 25 O 1016,1 10
23.03.2017 01:00:00 - - - - - - - - -

tt = temperatuur
td = dauwpunt
ff = windsnelheid
fx = windstoten
dd = windrichting
ppp = luchtdruk
vv = zicht

Weerstations in de omgeving